[[{"header":{"parameterUnit":"m.s-1","parameterCategory":1,"la1":30.2992,"la2":30.254,"lo1":-89.0895,"lo2":-89.0443,"dy":0.0025,"dx":0.0025,"nx":19,"ny":19,"refTime":"2026-05-16T21:00:00:Z","depth":0,"parameterNumber":2,"parameterNumberName":"U-component_of_WINDS"},"data":[0,0,0,-4.8216,-4.8219,-4.8346,-4.8346,-4.8518,-4.8519,0,0,0,0,0,0,0,0,0,0,0,-4.8186,-4.8187,-4.8216,-4.8219,-4.8345,-4.8346,-4.8517,-4.8519,0,0,0,0,0,0,0,0,0,0,0,-4.8185,-4.8187,-4.8189,-4.822,-4.8345,-4.8346,-4.8517,-4.8418,0,0,0,0,0,0,0,0,0,0,-4.8293,-4.8272,-4.8186,-4.8189,-4.8221,-4.8345,-4.8346,-4.8413,-4.8424,-4.8465,0,-4.8504,0,-4.8515,-4.8531,-4.8532,0,0,0,-4.8214,-4.8263,-4.8291,-4.8189,-4.8222,-4.8345,-4.8287,-4.8419,-4.8432,-4.848,-4.8506,-4.8513,-4.8517,-4.8533,-4.8534,-4.879,-4.8791,0,0,-4.8207,-4.8212,-4.8282,-4.8299,-4.8282,-4.8283,-4.8291,-4.8426,-4.8455,-4.8507,-4.8516,-4.852,-4.8534,-4.8535,-4.8788,-4.879,0,0,0,-4.8191,-4.8207,-4.8232,-4.8293,-4.8315,-4.8287,-4.8296,-4.8449,-4.8457,-4.8518,-4.8522,-4.8535,-4.8537,-4.8787,-4.8789,-4.8864,0,0,0,-4.8186,-4.8198,-4.8229,-4.8233,-4.8313,-4.8384,-4.8316,-4.8447,-4.8463,-4.8521,-4.8535,-4.8539,-4.8785,-4.8788,-4.8858,-4.8898,0,0,0,-4.8175,-4.8196,-4.8217,-4.8233,-4.8288,-4.8381,-4.8397,-4.8451,-4.8466,-4.8532,-4.8539,-4.8784,-4.8787,-4.8854,-4.889,-4.8965,0,0,0,-4.8165,-4.8283,-4.8219,-4.8352,-4.8287,-4.8428,-4.8396,-4.8501,-4.8567,-4.8536,-4.8785,-4.8789,-4.8852,-4.8885,-4.896,-4.9028,-4.9058,0,0,-4.8316,-4.8301,-4.838,-4.8326,-4.8479,-4.8408,-4.8573,-4.8629,-4.8631,-4.8736,-4.8743,-4.886,-4.8889,-4.8964,-4.9225,-4.9248,0,0,0,-4.8429,-4.8485,-4.8525,-4.8589,-4.8635,-4.8677,-4.8707,-4.8728,-4.8818,-4.8686,-4.8909,-4.8926,-4.897,-4.9002,-4.9022,-4.9058,-4.8804,-4.8804,-4.8804,-4.865,-4.8646,-4.8775,-4.8786,-4.8849,-4.8879,-4.8929,-4.8962,-4.894,-4.8993,-4.9023,-4.9182,-4.922,-4.9235,-4.9273,-4.9061,-4.9061,-4.9062,-4.9062,-4.887,-4.8947,-4.8916,-4.903,-4.9025,-4.912,-4.9154,-4.9136,-4.9223,-4.9159,-4.9197,-4.9125,-4.926,-4.9293,-4.9067,-4.9066,-4.9066,-4.9065,-4.9065,-4.9011,-4.9048,-4.9072,-4.9163,-4.9234,-4.9243,-4.9328,-4.9321,-4.9315,-4.9353,-4.9383,-4.9382,-4.9378,-4.9369,-4.9369,-4.937,-4.937,-4.9371,-4.9371,-4.9148,-4.9172,-4.9245,-4.9305,-4.9344,-4.9396,-4.9428,-4.9467,-4.9508,-4.9496,-4.9496,-4.9468,-4.9276,-4.9226,-4.938,-4.9378,-4.9377,-4.9376,-4.9376,-4.9367,-4.9317,-4.9429,-4.9469,-4.9538,-4.9608,-4.9599,-4.9679,-4.971,-4.9752,-4.9717,-4.9576,-4.956,-4.9544,-4.9502,-4.9718,-4.9718,-4.9718,-4.9718,-4.9485,-4.9477,-4.9589,-4.9653,-4.9716,-4.9719,-4.9845,-4.9872,-4.9891,-4.991,-4.9879,-4.9824,-4.9809,-4.9801,-4.978,-4.9741,-5.0013,-5.0013,-5.0013,-4.9619,-4.9617,-4.9725,-4.9744,-4.9797,-4.9843,-4.9961,-5.0035,-5.0047,-5.0025,-4.9925,-4.9912,-4.9824,-4.9796,-4.9769,-4.9736,-4.9664,0,0]},{"header":{"parameterUnit":"m.s-1","parameterCategory":1,"la1":30.2992,"la2":30.254,"lo1":-89.0895,"lo2":-89.0443,"dy":0.0025,"dx":0.0025,"nx":19,"ny":19,"refTime":"2026-05-16T21:00:00:Z","depth":0,"parameterNumber":3,"parameterNumberName":"V-component_of_WINDS"},"data":[0,0,0,3.9204,3.9205,3.9262,3.9262,3.9345,3.9346,0,0,0,0,0,0,0,0,0,0,0,3.9194,3.9195,3.9204,3.9205,3.9262,3.9263,3.9345,3.9346,0,0,0,0,0,0,0,0,0,0,0,3.9194,3.9195,3.9196,3.9206,3.9262,3.9263,3.9344,3.9298,0,0,0,0,0,0,0,0,0,0,3.924,3.9239,3.9195,3.9196,3.9206,3.9262,3.9263,3.9295,3.9301,3.9324,0,3.9347,0,3.9348,3.9352,3.9352,0,0,0,3.9199,3.9235,3.9244,3.9196,3.9207,3.9262,3.9235,3.9298,3.9304,3.9331,3.9349,3.9351,3.9349,3.9352,3.9353,3.9511,3.9512,0,0,3.9196,3.9208,3.924,3.9248,3.9242,3.9233,3.9237,3.9302,3.9321,3.9349,3.9353,3.9351,3.9353,3.9354,3.951,3.9511,0,0,0,3.9191,3.9206,3.9213,3.9245,3.9255,3.9235,3.9239,3.9318,3.932,3.9354,3.9352,3.9354,3.9355,3.9508,3.951,3.9573,0,0,0,3.9189,3.9203,3.9212,3.922,3.9254,3.9288,3.9254,3.9315,3.9322,3.9351,3.9354,3.9356,3.9507,3.9509,3.9569,3.9601,0,0,0,3.9188,3.9203,3.9214,3.922,3.9246,3.9286,3.9291,3.9316,3.9321,3.9352,3.9356,3.9507,3.9509,3.9565,3.9594,3.9646,0,0,0,3.919,3.9268,3.9215,3.9301,3.9245,3.9326,3.9291,3.9349,3.9383,3.9354,3.9507,3.951,3.9564,3.9591,3.9643,3.9693,3.9715,0,0,3.9294,3.9281,3.933,3.9285,3.9378,3.9316,3.9417,3.9436,3.9427,3.9483,3.9486,3.957,3.9594,3.9646,3.9833,3.9851,0,0,0,3.9368,3.9404,3.9426,3.946,3.9478,3.9496,3.9498,3.9505,3.9553,3.9459,3.9603,3.9616,3.9646,3.9669,3.9684,3.9709,3.9521,3.9521,3.9521,3.9532,3.9519,3.96,3.9594,3.9628,3.963,3.9656,3.9666,3.964,3.9675,3.9691,3.9807,3.9835,3.9846,3.9872,3.9716,3.9716,3.9717,3.9717,3.9684,3.9733,3.97,3.9768,3.9753,3.9808,3.9814,3.9794,3.9843,3.9793,3.9818,3.9765,3.9866,3.9888,3.9721,3.9721,3.972,3.972,3.9719,3.9791,3.9812,3.9821,3.9871,3.991,3.99,3.9949,3.9933,3.9917,3.9942,3.9958,3.9957,3.9954,3.9951,3.9952,3.9952,3.9952,3.9953,3.9953,3.9898,3.9906,3.9951,3.9978,3.9998,4.0023,4.0028,4.0047,4.0064,4.0048,4.0048,4.0019,3.9878,3.9843,3.9959,3.9958,3.9957,3.9957,3.9956,4.0058,4.002,4.0089,4.011,4.0141,4.0181,4.016,4.0201,4.0214,4.0239,4.0205,4.0104,4.0088,4.0076,4.0047,4.0208,4.0208,4.0208,4.0208,4.0148,4.0139,4.0207,4.0242,4.0274,4.0262,4.034,4.0344,4.0342,4.035,4.0324,4.0284,4.0272,4.0263,4.0247,4.022,4.0421,4.0422,4.0422,4.0246,4.024,4.031,4.031,4.0333,4.0353,4.0425,4.0465,4.0455,4.043,4.0355,4.0346,4.0281,4.0261,4.0235,4.021,4.0159,0,0]}]]